• Join FlightAware (Why Join?)
  • Login
  • US Flag GB Flag 
14:37 EDT


 

Airport Tracker/Info


-or-


 

Live Flight TrackerFlight Track Log ✈ N717AN ✈ 11-Dec-2012 ✈ KPAE - KDFW

Flight Track Log - Related Links

Times and Time Zones

All times are in EST time to prevent confusion due to time zone crossing. See the N717AN flight status page for this flight to view local times or setup timezone preferences in your user account.

Time Position Orientation Groundspeed Altitude Reporting Facility
EST Latitude Longitude Course Direction KTS MPH feet Rate Location/Type
15:34 47.8939 -122.2867 141° Southeast 162 186 1,600  Level Seattle Center
15:35 47.8331 -122.2481 141° Southeast 263 303 4,600 2,700 Climbing Seattle Center
15:37 47.7610 -122.1210 140° Southeast 292 336 9,500 3,360 Climbing FlightAware
15:37 47.7110 -122.0610 141° Southeast 307 353 12,700 3,600 Climbing FlightAware
15:38 47.6640 -122.0050 141° Southeast 319 367 14,900 1,800 Climbing FlightAware
15:39 47.6070 -121.9360 141° Southeast 328 377 15,300 420 Climbing FlightAware
15:39 47.5580 -121.8770 141° Southeast 402 463 15,500 1,920 Climbing FlightAware
15:40 47.5090 -121.8160 140° Southeast 422 486 17,700 4,500 Climbing FlightAware
15:41 47.4360 -121.7180 138° Southeast 426 490 21,500 4,920 Climbing FlightAware
15:41 47.3880 -121.6440 134° Southeast 393 452 24,700 3,720 Climbing FlightAware
15:42 47.3350 -121.5420 127° Southeast 415 478 26,800 1,620 Climbing FlightAware
15:43 47.2930 -121.4380 121° Southeast 470 541 27,000 120 Climbing FlightAware
15:44 47.2490 -121.3220 119° Southeast 480 552 27,000  Level FlightAware
15:44 47.2120 -121.2240 119° Southeast 480 552 27,000  Level FlightAware
15:45 47.1760 -121.1270 119° Southeast 480 552 27,000  Level FlightAware
15:46 47.1390 -121.0300 119° Southeast 480 552 27,000 2,760 Level FlightAware
15:46 47.0619 -120.8517 119° Southeast 494 568 30,100 4,020 Climbing Salt Lake Center
15:47 46.9883 -120.6636 120° Southeast 524 603 32,900 2,460 Climbing Salt Lake Center
15:48 46.9272 -120.5189 122° Southeast 525 604 34,900 1,980 Climbing Seattle Center
15:49 46.8500 -120.3336 121° Southeast 532 612 36,800 2,340 Climbing Seattle Center
15:50 46.7758 -120.1503 121° Southeast 528 608 39,700 1,620 Climbing Seattle Center
15:51 46.7006 -119.9719 122° Southeast 521 600 40,100 600 Climbing Seattle Center
15:52 46.6067 -119.7503 122° Southeast 533 613 41,000 420 Climbing Seattle Center
15:53 46.5292 -119.5667 121° Southeast 533 613 41,000  Level Seattle Center
15:54 46.4522 -119.3872 122° Southeast 527 606 41,000  Level Seattle Center
15:55 46.3753 -119.2092 122° Southeast 523 602 41,000  Level Seattle Center
15:56 46.2978 -119.0303 122° Southeast 523 602 41,000  Level Seattle Center
15:57 46.2189 -118.8494 122° Southeast 528 608 41,000  Level Seattle Center
15:58 46.1394 -118.6664 122° Southeast 534 615 41,000  Level Seattle Center
15:59 46.0572 -118.4797 122° Southeast 536 617 41,000  Level Seattle Center
16:00 45.9761 -118.2994 123° Southeast 537 618 41,000  Level Seattle Center
16:01 45.8964 -118.1217 123° Southeast 536 617 41,000 -60 Level Seattle Center
16:02 45.8167 -117.9428 123° Southeast 535 616 40,900  Descending Seattle Center
16:03 45.7361 -117.7667 123° Southeast 533 613 41,000  Climbing Seattle Center
16:04 45.6558 -117.5903 123° Southeast 533 613 41,000  Level Seattle Center
16:05 45.5761 -117.4153 123° Southeast 529 609 41,000  Level Seattle Center
16:06 45.4878 -117.2236 123° Southeast 525 604 41,000  Level Seattle Center
16:07 45.3983 -117.0306 123° Southeast 523 602 41,000  Level Seattle Center
16:08 45.3208 -116.8658 124° Southeast 523 602 41,000  Level Seattle Center
16:09 45.2436 -116.7025 124° Southeast 521 600 41,000  Level Seattle Center
16:10 45.1536 -116.5122 124° Southeast 520 598 41,000  Level Seattle Center
16:11 45.1289 -116.4581 123° Southeast 520 598 41,000  Level Salt Lake Center
16:12 45.0517 -116.2975 124° Southeast 516 594 41,000  Level Salt Lake Center
16:13 44.9753 -116.1361 124° Southeast 515 593 41,000  Level Salt Lake Center
16:14 44.8844 -115.9481 124° Southeast 516 594 41,000  Level Salt Lake Center
16:15 44.8069 -115.7886 124° Southeast 513 590 41,000  Level Salt Lake Center
16:16 44.7300 -115.6286 124° Southeast 511 588 41,000  Level Salt Lake Center
16:17 44.6400 -115.4408 124° Southeast 514 592 41,000  Level Salt Lake Center
16:18 44.5606 -115.2839 125° Southeast 513 590 41,000  Level Salt Lake Center
16:19 44.4836 -115.1269 124° Southeast 511 588 41,000  Level Salt Lake Center
16:20 44.3944 -114.9447 124° Southeast 508 585 41,000  Level Salt Lake Center
16:21 44.3164 -114.7889 125° Southeast 509 586 41,000  Level Salt Lake Center
16:22 44.2256 -114.6072 125° Southeast 510 587 41,000  Level Salt Lake Center
16:23 44.1442 -114.4514 125° Southeast 515 593 41,000  Level Salt Lake Center
16:24 44.0622 -114.2947 126° Southeast 520 598 41,000  Level Salt Lake Center
16:25 43.9683 -114.1125 126° Southeast 520 598 41,000  Level Salt Lake Center
16:26 43.8892 -113.9589 126° Southeast 514 592 41,000  Level Salt Lake Center
16:28 43.7430 -113.6780 125° Southeast 518 596 41,000  Level FlightAware
16:28 43.6990 -113.5930 126° Southeast 518 596 41,000  Level FlightAware
16:29 43.6210 -113.4470 126° Southeast 523 602 41,000  Level FlightAware
16:30 43.5630 -113.3370 126° Southeast 524 603 41,000  Level FlightAware
16:31 43.5080 -113.2330 126° Southeast 520 598 41,000  Level FlightAware
16:31 43.4400 -113.1040 126° Southeast 519 597 41,000  Level FlightAware
16:32 43.3840 -113.0000 127° Southeast 518 596 41,000  Level FlightAware
16:33 43.3270 -112.8940 126° Southeast 520 598 41,000  Level FlightAware
16:33 43.2630 -112.7760 127° Southeast 517 595 41,000  Level FlightAware
16:34 43.2070 -112.6720 126° Southeast 519 597 41,000  Level FlightAware
16:35 43.1410 -112.5510 127° Southeast 517 595 41,000  Level FlightAware
16:35 43.0860 -112.4500 127° Southeast 518 596 41,000  Level FlightAware
16:36 43.0260 -112.3400 127° Southeast 520 598 41,000  Level FlightAware
16:37 42.9630 -112.2250 127° Southeast 520 598 41,000  Level FlightAware
16:38 42.9050 -112.1200 127° Southeast 514 592 41,000  Level FlightAware
16:38 42.8490 -112.0180 127° Southeast 514 592 41,000  Level FlightAware
16:39 42.7830 -111.8990 127° Southeast 513 590 41,000  Level FlightAware
16:40 42.7280 -111.8010 127° Southeast 512 589 41,000  Level FlightAware
16:40 42.6630 -111.6850 127° Southeast 511 588 41,000  Level FlightAware
16:41 42.6110 -111.5920 127° Southeast 510 587 41,000  Level FlightAware
16:42 42.5610 -111.5030 127° Southeast 509 586 41,000  Level FlightAware
16:42 42.5010 -111.3940 127° Southeast 509 586 41,000  Level FlightAware
16:43 42.4530 -111.3080 127° Southeast 509 586 41,000  Level FlightAware
16:44 42.4050 -111.2210 127° Southeast 509 586 41,000  Level FlightAware
16:45 42.3570 -111.1340 127° Southeast 509 586 41,000  Level FlightAware
16:45 42.3080 -111.0480 128° Southeast 509 586 41,000  Level FlightAware
16:46 42.2600 -110.9610 127° Southeast 509 586 41,000  Level FlightAware
16:47 42.1294 -110.7503 127° Southeast 508 585 41,000  Level Salt Lake Center
16:48 42.0469 -110.6058 128° Southeast 508 585 41,000  Level Salt Lake Center
16:49 41.9472 -110.4350 128° Southeast 517 595 41,000  Level Salt Lake Center
16:50 41.8608 -110.2875 128° Southeast 523 602 41,000  Level Salt Lake Center
16:51 41.7731 -110.1386 128° Southeast 529 609 41,000  Level Salt Lake Center
16:52 41.6719 -109.9681 128° Southeast 526 605 41,000  Level Salt Lake Center
16:53 41.5867 -109.8247 128° Southeast 521 600 41,000  Level Salt Lake Center
16:54 41.4872 -109.6575 128° Southeast 518 596 41,000  Level Salt Lake Center
16:55 41.4019 -109.5158 129° Southeast 517 595 41,000  Level Salt Lake Center
16:56 41.3022 -109.3511 129° Southeast 518 596 41,000  Level Salt Lake Center
16:57 41.2172 -109.2100 129° Southeast 519 597 41,000  Level Salt Lake Center
16:58 41.1178 -109.0453 129° Southeast 518 596 41,000  Level Salt Lake Center
16:59 41.0303 -108.9028 129° Southeast 521 600 41,000  Level Salt Lake Center
17:00 40.9267 -108.7361 129° Southeast 526 605 41,000  Level Salt Lake Center
17:01 40.8378 -108.5914 129° Southeast 529 609 41,000  Level Salt Lake Center
17:02 40.7483 -108.4478 129° Southeast 531 611 41,000  Level Salt Lake Center
17:03 40.6647 -108.3114 129° Southeast 526 605 41,000  Level Denver Center
17:04 40.5608 -108.1456 129° Southeast 524 603 41,000  Level Denver Center
17:05 40.4708 -108.0031 130° Southeast 527 606 41,000  Level Denver Center
17:06 40.3819 -107.8642 130° Southeast 520 598 41,000  Level Denver Center
17:07 40.2822 -107.7081 130° Southeast 504 580 41,000  Level Denver Center
17:08 40.1961 -107.5731 130° Southeast 502 578 41,000  Level Denver Center
17:09 40.0933 -107.4128 131° Southeast 509 586 41,000  Level Denver Center
17:10 39.9545 -107.1990 130° Southeast 514 592 41,000  Level FlightAware ADS-B
17:11 39.8773 -107.0810 130° Southeast 518 596 41,000  Level FlightAware ADS-B
17:12 39.8112 -106.9790 130° Southeast 514 592 41,000  Level FlightAware ADS-B
17:13 39.7647 -106.9080 130° Southeast 514 592 41,000  Level FlightAware ADS-B
17:13 39.7181 -106.8370 130° Southeast 521 600 41,000  Level FlightAware ADS-B
17:14 39.6708 -106.7650 130° Southeast 524 603 41,000  Level FlightAware ADS-B
17:14 39.6232 -106.6930 131° Southeast 528 608 41,000  Level FlightAware ADS-B
17:15 39.5751 -106.6200 131° Southeast 530 610 41,000  Level FlightAware ADS-B
17:15 39.5267 -106.5470 131° Southeast 527 606 41,000  Level FlightAware ADS-B
17:16 39.4792 -106.4760 131° Southeast 526 605 41,000  Level FlightAware ADS-B
17:16 39.4316 -106.4040 131° Southeast 526 605 41,000  Level FlightAware ADS-B
17:17 39.3831 -106.3310 131° Southeast 526 605 41,000  Level FlightAware ADS-B
17:17 39.3351 -106.2590 131° Southeast 526 605 41,000  Level FlightAware ADS-B
17:18 39.2868 -106.1870 131° Southeast 528 608 41,000  Level FlightAware ADS-B
17:18 39.2384 -106.1150 131° Southeast 527 606 41,000  Level FlightAware ADS-B
17:19 39.1902 -106.0440 131° Southeast 513 590 41,000  Level FlightAware ADS-B
17:19 39.1430 -105.9740 131° Southeast 515 593 41,000  Level FlightAware ADS-B
17:20 39.0956 -105.9030 131° Southeast 519 597 41,000  Level FlightAware ADS-B
17:20 39.0477 -105.8330 131° Southeast 527 606 41,000  Level FlightAware ADS-B
17:21 38.9988 -105.7610 131° Southeast 529 609 41,000  Level FlightAware ADS-B
17:21 38.9497 -105.6890 131° Southeast 527 606 41,000  Level FlightAware ADS-B
17:22 38.9001 -105.6160 131° Southeast 526 605 41,000  Level FlightAware ADS-B
17:22 38.8517 -105.5460 132° Southeast 522 601 41,000  Level FlightAware ADS-B
17:23 38.8037 -105.4750 131° Southeast 522 601 41,000  Level FlightAware ADS-B
17:23 38.7552 -105.4050 132° Southeast 524 603 41,000  Level FlightAware ADS-B
17:24 38.7040 -105.3310 132° Southeast 526 605 41,000  Level FlightAware ADS-B
17:24 38.6560 -105.2610 131° Southeast 523 602 41,000  Level FlightAware ADS-B
17:25 38.6068 -105.1900 132° Southeast 523 602 41,000  Level FlightAware ADS-B
17:25 38.5553 -105.1150 131° Southeast 526 605 41,000  Level FlightAware ADS-B
17:26 38.5055 -105.0440 132° Southeast 524 603 41,000  Level FlightAware ADS-B
17:26 38.4567 -104.9740 132° Southeast 527 606 41,000  Level FlightAware ADS-B
17:27 38.4069 -104.9030 132° Southeast 528 608 41,000  Level FlightAware ADS-B
17:27 38.3495 -104.8200 131° Southeast 528 608 41,000  Level FlightAware ADS-B
17:28 38.2682 -104.7040 132° Southeast 529 609 41,000  Level FlightAware ADS-B
17:29 38.2149 -104.6290 132° Southeast 535 616 41,000  Level FlightAware ADS-B
17:29 38.1603 -104.5510 132° Southeast 535 616 41,000  Level FlightAware ADS-B
17:30 38.1054 -104.4740 132° Southeast 535 616 41,000  Level FlightAware ADS-B
17:30 38.0557 -104.4040 132° Southeast 531 611 41,000  Level FlightAware ADS-B
17:31 38.0000 -104.3250 132° Southeast 528 608 41,000  Level FlightAware ADS-B
17:31 37.9471 -104.2510 132° Southeast 524 603 41,000  Level FlightAware ADS-B
17:32 37.8914 -104.1730 132° Southeast 523 602 41,000  Level FlightAware ADS-B
17:33 37.8325 -104.0910 132° Southeast 520 598 41,000  Level FlightAware ADS-B
17:34 37.7340 -103.9540 132° Southeast 522 601 41,000  Level FlightAware ADS-B
17:34 37.6757 -103.8730 132° Southeast 524 603 41,000  Level FlightAware ADS-B
17:35 37.6252 -103.8030 132° Southeast 528 608 41,000  Level FlightAware ADS-B
17:35 37.5736 -103.7320 133° Southeast 530 610 41,000  Level FlightAware ADS-B
17:36 37.5228 -103.6610 132° Southeast 532 612 41,000  Level FlightAware ADS-B
17:36 37.4724 -103.5920 133° Southeast 532 612 41,000  Level FlightAware ADS-B
17:37 37.4012 -103.4900 131° Southeast 532 612 41,000  Level FlightAware ADS-B
17:38 37.3516 -103.4120 129° Southeast 532 612 41,000  Level FlightAware ADS-B
17:38 37.3056 -103.3370 128° Southeast 529 609 41,000  Level FlightAware ADS-B
17:39 37.2597 -103.2630 128° Southeast 527 606 41,000  Level FlightAware ADS-B
17:39 37.2144 -103.1900 128° Southeast 528 608 41,000  Level FlightAware ADS-B
17:40 37.1687 -103.1180 129° Southeast 527 606 41,000  Level FlightAware ADS-B
17:40 37.1214 -103.0440 129° Southeast 528 608 41,000  Level FlightAware ADS-B
17:41 37.0741 -102.9700 129° Southeast 530 610 41,000  Level FlightAware ADS-B
17:41 37.0278 -102.8970 128° Southeast 531 611 41,000  Level FlightAware ADS-B
17:42 36.9567 -102.7847 128° Southeast 529 609 41,000  Level Denver Center
17:43 36.8536 -102.6258 129° Southeast 529 609 41,000  Level Albuquerque Center
17:44 36.7569 -102.4764 129° Southeast 530 610 41,000  Level Albuquerque Center
17:45 36.6658 -102.3344 129° Southeast 526 605 41,000  Level Albuquerque Center
17:46 36.5753 -102.1953 129° Southeast 521 600 41,000  Level Albuquerque Center
17:47 36.4844 -102.0558 129° Southeast 518 596 41,000  Level Albuquerque Center
17:48 36.3917 -101.9169 130° Southeast 521 600 41,000  Level Albuquerque Center
17:49 36.3000 -101.7772 129° Southeast 521 600 41,000  Level Albuquerque Center
17:50 36.2075 -101.6375 129° Southeast 522 601 41,000  Level Albuquerque Center
17:51 36.1156 -101.4981 129° Southeast 521 600 41,000  Level Albuquerque Center
17:52 36.0242 -101.3603 129° Southeast 518 596 41,000  Level Albuquerque Center
17:53 35.9133 -101.1936 129° Southeast 519 597 41,000  Level Albuquerque Center
17:54 35.8208 -101.0567 130° Southeast 517 595 41,000  Level Albuquerque Center
17:55 35.7286 -100.9203 130° Southeast 516 594 41,000  Level Albuquerque Center
17:56 35.6375 -100.7850 130° Southeast 514 592 41,000  Level Albuquerque Center
17:57 35.5469 -100.6506 130° Southeast 510 587 41,000  Level Albuquerque Center
17:59 35.4544 -100.5153 130° Southeast 510 587 41,000  Level Albuquerque Center
18:00 35.3622 -100.3806 130° Southeast 512 589 41,000  Level Albuquerque Center
18:01 35.2692 -100.2450 130° Southeast 516 594 41,000  Level Albuquerque Center
18:02 35.1764 -100.1086 125° Southeast 519 597 41,000  Level Albuquerque Center
18:03 35.0636 -99.9506 125° Southeast 517 595 41,000  Level Albuquerque Center
18:04 34.9717 -99.8169 126° Southeast 515 593 41,000  Level Albuquerque Center
18:05 34.8781 -99.6825 125° Southeast 518 596 41,000  Level Albuquerque Center
18:06 34.7630 -99.4960 130° Southeast 517 595 41,000 -360 Level FlightAware
18:07 34.7060 -99.3980 125° Southeast 519 597 40,400 -720 Descending FlightAware
18:08 34.6250 -99.2570 125° Southeast 522 601 39,800 -1,200 Descending FlightAware
18:08 34.5640 -99.1540 126° Southeast 533 613 38,300 -1,740 Descending FlightAware
18:09 34.5000 -99.0440 125° Southeast 537 618 37,400 -780 Descending FlightAware
18:10 34.4340 -98.9310 125° Southeast 537 618 37,100 -660 Descending FlightAware
18:11 34.3610 -98.8070 125° Southeast 527 606 36,300 -1,500 Descending FlightAware
18:11 34.3110 -98.7240 126° Southeast 523 602 35,100 -1,320 Descending FlightAware
18:12 34.2590 -98.6340 125° Southeast 524 603 34,600 -3,720 Descending FlightAware
18:13 34.1880 -98.5160 126° Southeast 502 578 29,600 -5,400 Descending FlightAware
18:13 34.1290 -98.4180 126° Southeast 500 575 27,000 -3,180 Descending FlightAware
18:14 34.0770 -98.3310 126° Southeast 487 560 25,400 -2,580 Descending FlightAware
18:15 34.0230 -98.2410 126° Southeast 472 543 23,600 -2,640 Descending FlightAware
18:16 33.9650 -98.1460 126° Southeast 463 533 21,700 -1,680 Descending FlightAware
18:16 33.9250 -98.0780 125° Southeast 465 535 21,300 -2,460 Descending FlightAware
18:17 33.8470 -97.9490 126° Southeast 442 509 17,600 -3,240 Descending FlightAware
18:18 33.7980 -97.8690 126° Southeast 430 495 15,900 -2,520 Descending FlightAware
18:18 33.7550 -97.7990 126° Southeast 419 482 14,500 -2,340 Descending FlightAware
18:19 33.6920 -97.7120 131° Southeast 397 457 12,600 -2,280 Descending FlightAware
18:20 33.6380 -97.6560 139° Southeast 383 441 11,100 -1,680 Descending FlightAware
18:21 33.5860 -97.6030 140° Southeast 339 390 10,400 -720 Descending FlightAware
18:21 33.5410 -97.5580 140° Southeast 295 339 10,100 -420 Descending FlightAware
18:22 33.5090 -97.5260 140° Southeast 274 315 9,900 -660 Descending FlightAware
18:22 33.4850 -97.5010 139° Southeast 269 310 9,500 -1,140 Descending FlightAware
18:23 33.4540 -97.4700 140° Southeast 282 325 8,900 -780 Descending FlightAware
18:23 33.4330 -97.4490 140° Southeast 281 323 8,800 -360 Descending FlightAware
18:24 33.4010 -97.4150 138° Southeast 278 320 8,600 -780 Descending FlightAware
18:24 33.3800 -97.3850 130° Southeast 276 318 8,100 -1,140 Descending FlightAware
18:25 33.3620 -97.3490 121° Southeast 272 313 7,600 -1,140 Descending FlightAware
18:25 33.3420 -97.3090 121° Southeast 269 310 7,000 -900 Descending FlightAware
18:26 33.3260 -97.2770 121° Southeast 265 305 6,800 -240 Descending FlightAware
18:26 33.3070 -97.2400 122° Southeast 264 304 6,800  Level FlightAware
18:26 33.2900 -97.2070 122° Southeast 265 305 6,800  Level FlightAware
18:27 33.2710 -97.1690 121° Southeast 265 305 6,800  Level FlightAware
18:27 33.2560 -97.1400 122° Southeast 260 299 6,800 -660 Level FlightAware
18:28 33.2380 -97.1040 121° Southeast 244 281 6,200 -1,020 Descending FlightAware
18:28 33.2200 -97.0690 122° Southeast 221 254 5,800 -1,080 Descending FlightAware
18:29 33.2130 -97.0560 123° Southeast 217 250 5,400 -1,980 Descending FlightAware
18:29 33.1970 -97.0330 130° Southeast 219 252 4,500 -1,800 Descending FlightAware
18:29 33.1820 -97.0270 161° South 220 253 4,200 -1,020 Descending FlightAware
18:30 33.1670 -97.0250 174° South 218 251 4,000 -720 Descending FlightAware
18:30 33.1380 -97.0250 180° South 208 239 3,700 -720 Descending FlightAware
18:30 33.1220 -97.0250 180° South 201 231 3,500 -540 Descending FlightAware
18:31 33.0960 -97.0250 180° South 187 215 3,300 -480 Descending FlightAware
18:31 33.0760 -97.0250 180° South 175 201 3,100 -600 Descending FlightAware
18:32 33.0520 -97.0250 180° South 169 194 2,800 -480 Descending FlightAware
18:32 33.0310 -97.0260 182° South 173 199 2,700 -600 Descending FlightAware
18:33 33.0090 -97.0250 178° South 157 181 2,300 -900 Descending FlightAware
18:33 32.9930 -97.0260 183° South 137 158 1,900 -900 Descending FlightAware
18:33 32.9830 -97.0260 180° South 135 155 1,700 -840 Descending FlightAware
18:34 32.9640 -97.0260 180° South 135 155 1,300 -480 Descending FlightAware
18:34 32.9519 -97.0253 180° South 136 157 1,300 -300 Level FAA TRACON SMA TRACON (SMA)
18:35 32.9403 -97.0253 180° South 136 157 1,100 -780 Descending FAA TRACON SMA TRACON (SMA)
18:35 32.9286 -97.0261 183° South 133 153 800 -600 Descending FAA TRACON SMA TRACON (SMA)
18:35 32.9189 -97.0250 175° South 142 163 700 -300 Descending FAA TRACON SMA TRACON (SMA)
18:37 32.8968 -97.0380 157° South  Level Estimated
18:44 32.8968 -97.0380 157° South  Level Estimated